Location: ??????
(38.0131°N, 23.7723°E)
Time: 00:10:54
(UTC+00:00)

METEOR 2-5 DEB - Visible Passes

Search period start: 11 August 2022 00:00
Search period end: 21 August 2022 00:00
Orbit: 810 x 850 km, 81.2° (Epoch: 10 August)

Date Brightness Start Highest point End Pass type
(mag) Time Alt. Az. Time Alt. Az. Time Alt. Az.
11 Aug ? 19:08:55 10° NNE 19:13:39 30° ENE 19:14:22 29° E visible
11 Aug ? 20:51:21 10° NNW 20:55:56 30° W 20:55:56 30° W visible
12 Aug ? 18:51:00 10° NNE 18:55:22 24° ENE 18:56:30 22° E visible
12 Aug ? 20:32:56 10° NNW 20:37:56 37° W 20:38:05 37° W visible
13 Aug ? 18:33:11 10° NNE 18:37:04 19° ENE 18:38:39 17° E visible
13 Aug ? 20:14:36 10° NNW 20:19:48 47° W 20:20:15 46° WSW visible
14 Aug ? 18:15:32 10° NNE 18:18:44 16° ENE 18:20:50 13° E visible
14 Aug ? 19:56:18 10° NNW 20:01:40 59° W 20:02:25 54° SW visible
15 Aug ? 17:58:09 10° NE 18:00:24 12° ENE 18:02:37 10° E visible
15 Aug ? 19:38:03 10° NNW 19:43:29 75° W 19:44:38 55° SSW visible
16 Aug ? 19:19:51 10° N 19:25:19 88° E 19:26:52 49° S visible
17 Aug ? 19:01:40 10° N 19:07:07 71° E 19:09:08 39° SSE visible
17 Aug ? 20:46:49 10° WNW 20:48:51 12° W 20:50:44 10° WSW visible
18 Aug ? 18:43:33 10° N 18:48:54 56° ENE 18:51:26 30° SE visible
18 Aug ? 20:27:41 10° NW 20:30:47 16° W 20:33:02 12° WSW visible
19 Aug ? 18:25:27 10° N 18:30:39 45° ENE 18:33:47 22° SE visible
19 Aug ? 20:08:55 10° NW 20:12:43 20° W 20:15:23 14° WSW visible
20 Aug ? 18:07:24 10° N 18:12:23 36° ENE 18:16:10 16° SE visible
20 Aug ? 19:50:19 10° NW 19:54:37 25° W 19:57:46 15° SW visible
